Time,TemperatureF,DewpointF,PressureIn,WindDirection,WindDirectionDegrees,WindSpeedMPH,WindSpeedGustMPH,Humidity,HourlyPrecipIn,Conditions,Clouds,dailyrainin,SolarRadiationWatts/m^2,SoftwareType,DateUTC
2013-07-04 00:02:00,58.0,42.0,-100.00,NW,313,1.0,4.0,56,0.00,,,0.00,36.000000,,2013-07-04 08:02:00,
2013-07-04 00:11:00,58.0,42.0,-100.00,NW,313,1.0,4.0,56,0.00,,,0.00,36.000000,,2013-07-04 08:11:00,
2013-07-04 00:21:00,58.0,42.0,-100.00,NW,313,1.0,4.0,56,0.00,,,0.00,36.000000,,2013-07-04 08:21:00,
2013-07-04 00:53:00,50.0,41.0,-100.00,NNW,340,2.0,5.0,71,0.00,,,0.00,9.000000,,2013-07-04 08:53:00,
2013-07-04 01:02:00,50.0,41.0,-100.00,NNW,340,2.0,5.0,71,0.00,,,0.00,9.000000,,2013-07-04 09:02:00,
2013-07-04 01:11:00,50.0,41.0,-100.00,NNW,340,2.0,5.0,71,0.00,,,0.00,9.000000,,2013-07-04 09:11:00,
2013-07-04 01:22:00,50.0,41.0,-100.00,NNW,340,2.0,5.0,71,0.00,,,0.00,9.000000,,2013-07-04 09:22:00,
2013-07-04 02:53:00,47.0,46.0,-100.00,ENE,60,2.0,4.0,98,0.00,,,0.00,2.000000,,2013-07-04 10:53:00,
2013-07-04 03:02:00,47.0,46.0,-100.00,ENE,60,2.0,4.0,98,0.00,,,0.00,2.000000,,2013-07-04 11:02:00,
2013-07-04 03:11:00,47.0,46.0,-100.00,ENE,60,2.0,4.0,98,0.00,,,0.00,2.000000,,2013-07-04 11:11:00,
2013-07-04 03:22:00,47.0,46.0,-100.00,ENE,60,2.0,4.0,98,0.00,,,0.00,2.000000,,2013-07-04 11:22:00,
2013-07-04 03:53:00,46.0,46.0,-100.00,East,93,2.0,4.0,100,0.00,,,0.00,2.000000,,2013-07-04 11:53:00,
2013-07-04 04:01:00,46.0,46.0,-100.00,East,93,2.0,4.0,100,0.00,,,0.00,2.000000,,2013-07-04 12:01:00,
2013-07-04 04:11:00,46.0,46.0,-100.00,East,93,2.0,4.0,100,0.00,,,0.00,2.000000,,2013-07-04 12:11:00,
2013-07-04 04:22:00,46.0,46.0,-100.00,East,93,2.0,4.0,100,0.00,,,0.00,2.000000,,2013-07-04 12:22:00,
2013-07-04 05:02:00,44.0,44.0,-100.00,East,82,2.0,6.0,99,0.00,,,0.00,8.000000,,2013-07-04 13:02:00,
2013-07-04 05:12:00,44.0,44.0,-100.00,East,82,2.0,6.0,99,0.00,,,0.00,8.000000,,2013-07-04 13:12:00,
2013-07-04 05:22:00,44.0,44.0,-100.00,East,82,2.0,6.0,99,0.00,,,0.00,8.000000,,2013-07-04 13:22:00,
2013-07-04 05:53:00,48.0,45.0,-100.00,NE,48,1.0,4.0,90,0.00,,,0.00,18.000000,,2013-07-04 13:53:00,
2013-07-04 06:02:00,48.0,45.0,-100.00,NE,48,1.0,4.0,90,0.00,,,0.00,18.000000,,2013-07-04 14:02:00,
2013-07-04 06:11:00,48.0,45.0,-100.00,NE,48,1.0,4.0,90,0.00,,,0.00,18.000000,,2013-07-04 14:11:00,
2013-07-04 06:22:00,48.0,45.0,-100.00,NE,48,1.0,4.0,90,0.00,,,0.00,18.000000,,2013-07-04 14:22:00,
2013-07-04 06:53:00,53.0,46.0,-100.00,ESE,106,5.0,8.0,76,0.00,,,0.00,88.000000,,2013-07-04 14:53:00,
2013-07-04 07:02:00,53.0,46.0,-100.00,ESE,106,5.0,8.0,76,0.00,,,0.00,88.000000,,2013-07-04 15:02:00,
2013-07-04 07:11:00,53.0,46.0,-100.00,ESE,106,5.0,8.0,76,0.00,,,0.00,88.000000,,2013-07-04 15:11:00,
2013-07-04 07:23:00,53.0,46.0,-100.00,ESE,106,5.0,8.0,76,0.00,,,0.00,88.000000,,2013-07-04 15:23:00,
2013-07-04 07:52:00,55.0,45.0,-100.00,ESE,109,5.0,9.0,68,0.00,,,0.00,214.000000,,2013-07-04 15:52:00,
2013-07-04 08:02:00,55.0,45.0,-100.00,ESE,109,5.0,9.0,68,0.00,,,0.00,214.000000,,2013-07-04 16:02:00,
2013-07-04 08:11:00,55.0,45.0,-100.00,ESE,109,5.0,9.0,68,0.00,,,0.00,214.000000,,2013-07-04 16:11:00,
2013-07-04 08:22:00,55.0,45.0,-100.00,ESE,109,5.0,9.0,68,0.00,,,0.00,214.000000,,2013-07-04 16:22:00,
2013-07-04 08:52:00,57.0,44.0,-100.00,ESE,106,5.0,9.0,62,0.00,,,0.00,273.000000,,2013-07-04 16:52:00,
2013-07-04 09:01:00,57.0,44.0,-100.00,ESE,106,5.0,9.0,62,0.00,,,0.00,273.000000,,2013-07-04 17:01:00,
2013-07-04 09:11:00,57.0,44.0,-100.00,ESE,106,5.0,9.0,62,0.00,,,0.00,273.000000,,2013-07-04 17:11:00,
2013-07-04 09:22:00,57.0,44.0,-100.00,ESE,106,5.0,9.0,62,0.00,,,0.00,273.000000,,2013-07-04 17:22:00,
2013-07-04 09:53:00,59.0,44.0,-100.00,ESE,121,4.0,9.0,58,0.00,,,0.00,291.000000,,2013-07-04 17:53:00,
2013-07-04 10:01:00,59.0,44.0,-100.00,ESE,121,4.0,9.0,58,0.00,,,0.00,291.000000,,2013-07-04 18:01:00,
2013-07-04 10:11:00,59.0,44.0,-100.00,ESE,121,4.0,9.0,58,0.00,,,0.00,291.000000,,2013-07-04 18:11:00,
2013-07-04 10:22:00,59.0,44.0,-100.00,ESE,121,4.0,9.0,58,0.00,,,0.00,291.000000,,2013-07-04 18:22:00,
2013-07-04 10:52:00,65.0,46.0,-100.00,ESE,108,4.0,7.0,51,0.00,,,0.00,511.000000,,2013-07-04 18:52:00,
2013-07-04 11:01:00,65.0,46.0,-100.00,ESE,108,4.0,7.0,51,0.00,,,0.00,511.000000,,2013-07-04 19:01:00,
2013-07-04 11:11:00,65.0,46.0,-100.00,ESE,108,4.0,7.0,51,0.00,,,0.00,511.000000,,2013-07-04 19:11:00,
2013-07-04 11:22:00,65.0,46.0,-100.00,ESE,108,4.0,7.0,51,0.00,,,0.00,511.000000,,2013-07-04 19:22:00,
2013-07-04 11:53:00,68.0,42.0,-100.00,SE,143,5.0,9.0,39,0.00,,,0.00,579.000000,,2013-07-04 19:53:00,
2013-07-04 12:01:00,68.0,42.0,-100.00,SE,143,5.0,9.0,39,0.00,,,0.00,579.000000,,2013-07-04 20:01:00,
2013-07-04 12:11:00,68.0,42.0,-100.00,SE,143,5.0,9.0,39,0.00,,,0.00,579.000000,,2013-07-04 20:11:00,
2013-07-04 12:22:00,68.0,42.0,-100.00,SE,143,5.0,9.0,39,0.00,,,0.00,579.000000,,2013-07-04 20:22:00,
2013-07-04 12:53:00,65.0,40.0,-100.00,West,268,6.0,10.0,40,0.00,,,0.00,258.000000,,2013-07-04 20:53:00,
2013-07-04 13:01:00,65.0,40.0,-100.00,West,268,6.0,10.0,40,0.00,,,0.00,258.000000,,2013-07-04 21:01:00,
2013-07-04 13:11:00,65.0,40.0,-100.00,West,268,6.0,10.0,40,0.00,,,0.00,258.000000,,2013-07-04 21:11:00,
2013-07-04 13:22:00,65.0,40.0,-100.00,West,268,6.0,10.0,40,0.00,,,0.00,258.000000,,2013-07-04 21:22:00,
2013-07-04 13:53:00,67.0,41.0,-100.00,West,261,9.0,12.0,39,0.00,,,-99.99,409.000000,,2013-07-04 21:53:00,
2013-07-04 14:01:00,67.0,41.0,-100.00,West,261,9.0,12.0,39,0.00,,,-99.99,409.000000,,2013-07-04 22:01:00,
2013-07-04 14:11:00,67.0,41.0,-100.00,West,261,9.0,12.0,39,0.00,,,-99.99,409.000000,,2013-07-04 22:11:00,
2013-07-04 14:22:00,67.0,41.0,-100.00,West,261,9.0,12.0,39,0.00,,,-99.99,409.000000,,2013-07-04 22:22:00,
2013-07-04 14:52:00,67.0,41.0,-100.00,West,263,9.0,13.0,38,0.00,,,0.00,419.000000,,2013-07-04 22:52:00,
2013-07-04 15:01:00,67.0,41.0,-100.00,West,263,9.0,13.0,38,0.00,,,0.00,419.000000,,2013-07-04 23:01:00,
2013-07-04 15:11:00,67.0,41.0,-100.00,West,263,9.0,13.0,38,0.00,,,0.00,419.000000,,2013-07-04 23:11:00,
2013-07-04 15:23:00,67.0,41.0,-100.00,West,263,9.0,13.0,38,0.00,,,0.00,419.000000,,2013-07-04 23:23:00,
2013-07-04 15:52:00,66.0,40.0,-100.00,West,275,7.0,14.0,39,0.00,,,0.00,341.000000,,2013-07-04 23:52:00,
2013-07-04 16:01:00,66.0,40.0,-100.00,West,275,7.0,14.0,39,0.00,,,0.00,341.000000,,2013-07-05 00:01:00,
2013-07-04 16:11:00,66.0,40.0,-100.00,West,275,7.0,14.0,39,0.00,,,0.00,341.000000,,2013-07-05 00:11:00,
2013-07-04 16:21:00,66.0,40.0,-100.00,West,275,7.0,14.0,39,0.00,,,0.00,341.000000,,2013-07-05 00:21:00,
2013-07-04 16:52:00,66.0,41.0,-100.00,WSW,258,6.0,14.0,40,0.00,,,0.00,233.000000,,2013-07-05 00:52:00,
2013-07-04 17:01:00,66.0,41.0,-100.00,WSW,258,6.0,14.0,40,0.00,,,0.00,233.000000,,2013-07-05 01:01:00,
2013-07-04 17:11:00,66.0,41.0,-100.00,WSW,258,6.0,14.0,40,0.00,,,0.00,233.000000,,2013-07-05 01:11:00,
2013-07-04 17:21:00,66.0,41.0,-100.00,WSW,258,6.0,14.0,40,0.00,,,0.00,233.000000,,2013-07-05 01:21:00,
2013-07-04 17:52:00,64.0,37.0,-100.00,West,260,13.0,23.0,37,0.00,,,0.00,241.000000,,2013-07-05 01:52:00,
2013-07-04 18:02:00,64.0,37.0,-100.00,West,260,13.0,23.0,37,0.00,,,0.00,241.000000,,2013-07-05 02:02:00,
2013-07-04 18:11:00,64.0,37.0,-100.00,West,260,13.0,23.0,37,0.00,,,0.00,241.000000,,2013-07-05 02:11:00,
2013-07-04 18:21:00,64.0,37.0,-100.00,West,260,13.0,23.0,37,0.00,,,0.00,241.000000,,2013-07-05 02:21:00,
2013-07-04 18:52:00,63.0,40.0,-100.00,WSW,248,12.0,20.0,43,0.00,,,0.00,209.000000,,2013-07-05 02:52:00,
2013-07-04 19:02:00,63.0,40.0,-100.00,WSW,248,12.0,20.0,43,0.00,,,0.00,209.000000,,2013-07-05 03:02:00,
2013-07-04 19:11:00,63.0,40.0,-100.00,WSW,248,12.0,20.0,43,0.00,,,0.00,209.000000,,2013-07-05 03:11:00,
2013-07-04 19:21:00,63.0,40.0,-100.00,WSW,248,12.0,20.0,43,0.00,,,0.00,209.000000,,2013-07-05 03:21:00,
2013-07-04 19:52:00,63.0,41.0,-100.00,SW,228,11.0,21.0,45,0.00,,,0.00,245.000000,,2013-07-05 03:52:00,
2013-07-04 20:01:00,63.0,41.0,-100.00,SW,228,11.0,21.0,45,0.00,,,0.00,245.000000,,2013-07-05 04:01:00,
2013-07-04 20:11:00,63.0,41.0,-100.00,SW,228,11.0,21.0,45,0.00,,,0.00,245.000000,,2013-07-05 04:11:00,
2013-07-04 20:21:00,63.0,41.0,-100.00,SW,228,11.0,21.0,45,0.00,,,0.00,245.000000,,2013-07-05 04:21:00,
2013-07-04 20:53:00,59.0,43.0,-100.00,WNW,302,10.0,16.0,56,0.00,,,0.00,142.000000,,2013-07-05 04:53:00,
2013-07-04 21:01:00,59.0,43.0,-100.00,WNW,302,10.0,16.0,56,0.00,,,0.00,142.000000,,2013-07-05 05:01:00,
2013-07-04 21:12:00,59.0,43.0,-100.00,WNW,302,10.0,16.0,56,0.00,,,0.00,142.000000,,2013-07-05 05:12:00,
2013-07-04 21:21:00,59.0,43.0,-100.00,WNW,302,10.0,16.0,56,0.00,,,0.00,142.000000,,2013-07-05 05:21:00,
2013-07-04 21:52:00,57.0,45.0,-100.00,NW,324,6.0,14.0,64,0.00,,,0.00,82.000000,,2013-07-05 05:52:00,
2013-07-04 22:02:00,57.0,45.0,-100.00,NW,324,6.0,14.0,64,0.00,,,0.00,82.000000,,2013-07-05 06:02:00,
2013-07-04 22:13:00,57.0,45.0,-100.00,NW,324,6.0,14.0,64,0.00,,,0.00,82.000000,,2013-07-05 06:13:00,
2013-07-04 22:23:00,57.0,45.0,-100.00,NW,324,6.0,14.0,64,0.00,,,0.00,82.000000,,2013-07-05 06:23:00,
2013-07-04 22:53:00,55.0,45.0,-100.00,WNW,302,6.0,11.0,68,0.00,,,0.00,54.000000,,2013-07-05 06:53:00,
2013-07-04 23:02:00,55.0,45.0,-100.00,WNW,302,6.0,11.0,68,0.00,,,0.00,54.000000,,2013-07-05 07:02:00,
2013-07-04 23:12:00,55.0,45.0,-100.00,WNW,302,6.0,11.0,68,0.00,,,0.00,54.000000,,2013-07-05 07:12:00,
2013-07-04 23:23:00,55.0,45.0,-100.00,WNW,302,6.0,11.0,68,0.00,,,0.00,54.000000,,2013-07-05 07:23:00,
2013-07-04 23:53:00,53.0,43.0,-100.00,WNW,297,5.0,10.0,69,0.00,,,0.00,18.000000,,2013-07-05 07:53:00,